User: anonymous   Login
Location: Newark
(45.2500°N, 7.5833°E)
Time: 02:54:46
(UTC+00:00)
Language:

SR - Orbit

View from above orbital plane
View from above orbital plane
View from above satellite
View from above satellite

Ground track
Ground track

The orbit data is extracted from the following two-line orbital elements,

1    46U 60007B   20028.54658941 -.00000034  00000-0  16583-4 0  9992
2    46  66.6903  67.2435 0216445 237.3602 120.6459 14.49271396118681
Epoch (UTC): 28 January 2020 13:07:05
Eccentricity: 0.0216445
inclination: 66.6903°
perigee height: 574 km
apogee height: 882 km
right ascension of ascending node: 67.2435°
argument of perigee: 237.3602°
revolutions per day: 14.49271396
mean anomaly at epoch: 120.6459°
orbit number at epoch: 11868

The dashed part of the orbit path shows where the satellite is in the earth's shadow,  

DLR